Weather History for Cook, MN

Change the Weather History Date:

Tuesday, November 27, 2012

  Actual Average Record
Temperature  
Mean Temperature 17 °F -  
Max Temperature 24 °F 29 °F 53 °F (1998)
Min Temperature 8 °F 14 °F -14 °F (1996)
Degree Days  
Heating Degree Days 48    
Moisture  
Dew Point 14 °F    
Average Humidity 83    
Maximum Humidity 93    
Minimum Humidity 73    
Precipitation  
Precipitation 0.00 in - - ()
Sea Level Pressure  
Sea Level Pressure 30.07 in    
Wind  
Wind Speed 6 mph (WSW)    
Max Wind Speed 12 mph    
Max Gust Speed 16 mph    
Visibility 7 miles    
Events Snow    
Averages and records for this station are not official NWS values.
T = Trace of Precipitation, MM = Missing Value Source: NWS Daily Summary

Daily Weather History Graph

Daily Weather History Graph

Search for Another Location

Airport:

Trip Planner

Search our weather history database for the weather conditions in past years. The results will help you decide how hot, cold, wet, or windy it might be!

Date:

Astronomy

Nov. 27, 2012 Rise Set
Actual Time 7:34 AM CST 4:22 PM CST
Civil Twilight 6:59 AM CST 4:57 PM CST
Nautical Twilight 6:20 AM CST 5:36 PM CST
Astronomical Twilight 5:43 AM CST 6:13 PM CST
Moon 3:55 PM CST (11/27) 6:38 AM CST (11/27)
Length of Visible Light 9h 58m
Length of Day
8h 48m
Waxing Gibbous, 99% of the Moon is Illuminated
Nov 27
Waxing Gibbous
Nov 28
Full
Dec 6
Last Quarter
Dec 13
New
Dec 19
First Quarter

Hourly Weather History & Observations

Time (CST) Temp. Windchill Dew Point Humidity Pressure Visibility Wind Dir Wind Speed Gust Speed Precip Events Conditions
12:16 AM 15.8 °F 7.2 °F 8.6 °F 73% 30.13 in 10.0 mi SSW 5.8 mph - N/A   Overcast
12:37 AM 15.8 °F 7.2 °F 10.4 °F 79% 30.12 in 10.0 mi SSW 5.8 mph - N/A   Overcast
12:56 AM 15.8 °F 7.2 °F 10.4 °F 79% 30.12 in 10.0 mi SSW 5.8 mph - N/A   Overcast
1:17 AM 15.8 °F 6.1 °F 10.4 °F 79% 30.11 in 10.0 mi SSW 6.9 mph - N/A   Overcast
1:37 AM 15.8 °F 7.2 °F 10.4 °F 79% 30.11 in 10.0 mi SSW 5.8 mph - N/A   Overcast
1:56 AM 17.6 °F 9.3 °F 10.4 °F 73% 30.11 in 10.0 mi SW 5.8 mph - N/A   Overcast
2:17 AM 17.6 °F 10.7 °F 12.2 °F 79% 30.10 in 10.0 mi SSW 4.6 mph - N/A   Overcast
2:37 AM 17.6 °F 9.3 °F 12.2 °F 79% 30.11 in 10.0 mi SW 5.8 mph - N/A   Overcast
2:56 AM 17.6 °F 10.7 °F 12.2 °F 79% 30.10 in 10.0 mi SW 4.6 mph - N/A   Overcast
3:17 AM 17.6 °F 9.3 °F 12.2 °F 79% 30.08 in 10.0 mi SW 5.8 mph - N/A   Overcast
3:36 AM 17.6 °F 10.7 °F 12.2 °F 79% 30.07 in 10.0 mi SSW 4.6 mph - N/A   Overcast
3:56 AM 19.4 °F 10.4 °F 12.2 °F 74% 30.07 in 10.0 mi SW 6.9 mph - N/A   Overcast
4:17 AM 19.4 °F 10.4 °F 14.0 °F 80% 30.07 in 7.0 mi SSW 6.9 mph - N/A Snow Light Snow
4:36 AM 17.6 °F 8.2 °F 15.8 °F 93% 30.06 in 2.5 mi SW 6.9 mph - N/A Snow Light Snow
4:56 AM 17.6 °F 9.3 °F 15.8 °F 93% 30.06 in 1.5 mi SW 5.8 mph - N/A Snow Light Snow
5:17 AM 17.6 °F 12.3 °F 15.8 °F 93% 30.05 in 1.5 mi SSW 3.5 mph - N/A Snow Light Snow
5:36 AM 17.6 °F 9.3 °F 15.8 °F 93% 30.05 in 1.2 mi SSW 5.8 mph - N/A Snow Snow
6:36 AM 19.4 °F 11.5 °F 17.6 °F 93% 30.04 in 1.5 mi SW 5.8 mph - N/A Snow Light Snow
6:56 AM 19.4 °F 12.8 °F 17.6 °F 93% 30.04 in 1.5 mi SW 4.6 mph - N/A Snow Light Snow
7:17 AM 19.4 °F 11.5 °F 15.8 °F 86% 30.04 in 2.0 mi SW 5.8 mph - N/A Snow Light Snow
7:36 AM 19.4 °F 12.8 °F 15.8 °F 86% 30.04 in 1.8 mi SW 4.6 mph - N/A Snow Light Snow
7:57 AM 19.4 °F 12.8 °F 15.8 °F 86% 30.04 in 1.5 mi SSW 4.6 mph - N/A Snow Light Snow
8:17 AM 19.4 °F 14.3 °F 15.8 °F 86% 30.04 in 1.8 mi SW 3.5 mph - N/A Snow Light Snow
8:36 AM 19.4 °F 12.8 °F 15.8 °F 86% 30.03 in 1.0 mi SSW 4.6 mph - N/A Snow Light Snow
8:57 AM 19.4 °F 11.5 °F 17.6 °F 93% 30.03 in 1.8 mi SSW 5.8 mph - N/A Snow Light Snow
9:17 AM 19.4 °F 10.4 °F 17.6 °F 93% 30.03 in 2.0 mi SW 6.9 mph - N/A Snow Light Snow
9:36 AM 19.4 °F 11.5 °F 17.6 °F 93% 30.04 in 4.0 mi WSW 5.8 mph - N/A   Mostly Cloudy
9:57 AM 19.4 °F 10.4 °F 17.6 °F 93% 30.04 in 5.0 mi WSW 6.9 mph - N/A   Scattered Clouds
10:17 AM 21.2 °F 13.6 °F 17.6 °F 86% 30.04 in 4.0 mi SW 5.8 mph - N/A Snow Light Snow
10:36 AM 21.2 °F 13.6 °F 17.6 °F 86% 30.04 in 4.0 mi WSW 5.8 mph - N/A Snow Light Snow
10:57 AM 21.2 °F 13.6 °F 17.6 °F 86% 30.04 in 4.0 mi WSW 5.8 mph - N/A Snow Light Snow
11:17 AM 23.0 °F 15.8 °F 19.4 °F 86% 30.04 in 2.0 mi West 5.8 mph - N/A Snow Light Snow
11:36 AM 23.0 °F 15.8 °F 19.4 °F 86% 30.03 in 2.5 mi West 5.8 mph - N/A Snow Light Snow
11:57 AM 23.0 °F 14.7 °F 19.4 °F 86% 30.02 in 2.5 mi West 6.9 mph - N/A Snow Light Snow
12:16 PM 23.0 °F 15.8 °F 19.4 °F 86% 30.02 in 2.0 mi West 5.8 mph - N/A Snow Light Snow
12:36 PM 23.0 °F 14.7 °F 19.4 °F 86% 30.02 in 3.0 mi West 6.9 mph - N/A Snow Light Snow
12:57 PM 24.8 °F 16.9 °F 19.4 °F 80% 30.02 in 4.0 mi West 6.9 mph - N/A Snow Light Snow
1:16 PM 24.8 °F 14.6 °F 19.4 °F 80% 30.01 in 7.0 mi West 10.4 mph - N/A   Overcast
1:37 PM 24.8 °F 15.3 °F 19.4 °F 80% 30.01 in 10.0 mi West 9.2 mph - N/A   Mostly Cloudy
1:56 PM 24.8 °F 15.3 °F 17.6 °F 74% 30.01 in 10.0 mi West 9.2 mph - N/A   Mostly Cloudy
2:16 PM 24.8 °F 16.1 °F 17.6 °F 74% 30.02 in 10.0 mi WNW 8.1 mph - N/A   Overcast
2:37 PM 24.8 °F 14.6 °F 19.4 °F 80% 30.02 in 10.0 mi West 10.4 mph - N/A   Overcast
2:56 PM 23.0 °F 15.8 °F 19.4 °F 86% 30.02 in 10.0 mi WNW 5.8 mph - N/A   Overcast
3:16 PM 21.2 °F 12.6 °F 17.6 °F 86% 30.03 in 10.0 mi NW 6.9 mph - N/A   Overcast
3:37 PM 21.2 °F 13.6 °F 17.6 °F 86% 30.03 in 10.0 mi WNW 5.8 mph - N/A   Overcast
3:56 PM 21.2 °F 11.7 °F 15.8 °F 80% 30.04 in 10.0 mi WNW 8.1 mph 16.1 mph N/A   Overcast
4:16 PM 19.4 °F 8.6 °F 15.8 °F 86% 30.05 in 10.0 mi WNW 9.2 mph - N/A   Overcast
4:37 PM 19.4 °F 7.2 °F 15.8 °F 86% 30.06 in 10.0 mi West 11.5 mph 16.1 mph N/A   Overcast
4:56 PM 19.4 °F 10.4 °F 15.8 °F 86% 30.06 in 10.0 mi WNW 6.9 mph - N/A Snow Light Snow
5:16 PM 19.4 °F 10.4 °F 14.0 °F 80% 30.07 in 10.0 mi WNW 6.9 mph - N/A   Overcast
5:57 PM 17.6 °F 9.3 °F 12.2 °F 79% 30.08 in 10.0 mi WNW 5.8 mph - N/A   Overcast
6:16 PM 17.6 °F 8.2 °F 12.2 °F 79% 30.09 in 10.0 mi WNW 6.9 mph - N/A   Overcast
6:36 PM 17.6 °F 9.3 °F 12.2 °F 79% 30.09 in 10.0 mi WNW 5.8 mph - N/A   Overcast
6:57 PM 15.8 °F 8.6 °F 12.2 °F 86% 30.10 in 10.0 mi NW 4.6 mph - N/A   Overcast
7:16 PM 15.8 °F 6.1 °F 10.4 °F 79% 30.10 in 10.0 mi WNW 6.9 mph - N/A   Overcast
7:37 PM 15.8 °F 8.6 °F 10.4 °F 79% 30.11 in 10.0 mi NW 4.6 mph - N/A   Overcast
7:56 PM 15.8 °F 5.1 °F 8.6 °F 73% 30.11 in 10.0 mi WNW 8.1 mph - N/A   Overcast
8:16 PM 14.0 °F 6.5 °F 8.6 °F 79% 30.12 in 10.0 mi NW 4.6 mph - N/A   Overcast
8:37 PM 12.2 °F 2.9 °F 8.6 °F 85% 30.13 in 10.0 mi NW 5.8 mph - N/A   Overcast
8:56 PM 12.2 °F -1.0 °F 6.8 °F 79% 30.14 in 10.0 mi WNW 10.4 mph - N/A   Overcast
9:17 PM 12.2 °F 4.3 °F 6.8 °F 79% 30.14 in 10.0 mi NW 4.6 mph - N/A   Overcast
9:37 PM 12.2 °F 1.7 °F 6.8 °F 79% 30.15 in 10.0 mi WNW 6.9 mph - N/A   Overcast
9:56 PM 10.4 °F - 6.8 °F 85% 30.15 in 10.0 mi Calm Calm - N/A   Overcast
10:17 PM 10.4 °F - 6.8 °F 85% 30.15 in 10.0 mi Calm Calm - N/A   Overcast
10:56 PM 10.4 °F 2.2 °F 6.8 °F 85% 30.16 in 10.0 mi WNW 4.6 mph - N/A   Overcast
11:17 PM 10.4 °F 2.2 °F 5.0 °F 79% 30.17 in 10.0 mi WNW 4.6 mph - N/A   Overcast
11:57 PM 8.6 °F 0.1 °F 5.0 °F 85% 30.18 in 10.0 mi NW 4.6 mph - N/A   Overcast